^^
Datos históricos de la estación: Murcia-Puente Tocinos
Diario Informe para Junio 26, 2019 Unidades:  Métrico    Inglés   Ambas
Diario Semanal Mensual Anual Configurable
  Máximo: Mínimo: Media:
Temperatura: 32.4 °C 22.3 °C 26.4 °C
Punto de rocio: 21.1 °C 17.8 °C 19.3 °C
Humedad: 81% 42% 66%
Velocidad viento: 20.9km/h 0.0km/h 7.4km/h
Racha viento: 33.5km/h - -
Viento- - SSE
Presión: 1016.2 hPa 1012.8 hPa -
Precipitación: 0.0 mm    
Historical Graphs
 
 
Tabla de datos para Junio 26, 2019
Hora Temperatura Punto de rocio Presión Viento Velocidad viento Racha viento Humedad Intensidad lluvia(por hora) Nubes
00:04 23.2 °C 19.3 °C 1015.0 hPa NE 8.4 km/h 11.1 km/h 79% 0.0 mm CLR
00:09 23.2 °C 19.3 °C 1015.0 hPa NNE 8.4 km/h 11.1 km/h 79% 0.0 mm CLR
00:14 23.2 °C 19.3 °C 1015.0 hPa NNE 7.6 km/h 7.4 km/h 79% 0.0 mm CLR
00:19 23.1 °C 19.3 °C 1015.2 hPa NNE 6.9 km/h 10.0 km/h 79% 0.0 mm CLR
00:24 23.1 °C 19.4 °C 1015.2 hPa NE 6.9 km/h 11.1 km/h 80% 0.0 mm CLR
00:29 23.1 °C 19.4 °C 1015.2 hPa NE 7.6 km/h 11.1 km/h 80% 0.0 mm CLR
00:34 23.1 °C 19.4 °C 1015.1 hPa East 7.6 km/h 11.1 km/h 80% 0.0 mm CLR
00:39 23.0 °C 19.4 °C 1015.1 hPa ENE 7.6 km/h 9.3 km/h 80% 0.0 mm CLR
00:44 22.9 °C 19.3 °C 1015.1 hPa NNE 7.6 km/h 7.4 km/h 80% 0.0 mm CLR
00:49 23.0 °C 19.4 °C 1015.1 hPa NNW 5.8 km/h 7.4 km/h 80% 0.0 mm CLR
00:54 22.9 °C 19.3 °C 1015.1 hPa NNW 5.8 km/h 5.8 km/h 80% 0.0 mm CLR
00:59 22.9 °C 19.3 °C 1015.1 hPa WNW 3.9 km/h 7.4 km/h 80% 0.0 mm CLR
01:04 22.9 °C 19.3 °C 1014.9 hPa West 3.9 km/h 3.7 km/h 80% 0.0 mm CLR
01:09 22.9 °C 19.3 °C 1014.9 hPa West 3.9 km/h 5.8 km/h 80% 0.0 mm CLR
01:14 22.9 °C 19.3 °C 1014.9 hPa West 3.9 km/h 5.6 km/h 80% 0.0 mm CLR
01:19 22.9 °C 19.3 °C 1014.9 hPa West 4.7 km/h 7.4 km/h 80% 0.0 mm CLR
01:24 22.9 °C 19.3 °C 1014.9 hPa West 4.7 km/h 3.7 km/h 80% 0.0 mm CLR
01:29 22.9 °C 19.3 °C 1014.9 hPa West 2.9 km/h 4.7 km/h 80% 0.0 mm CLR
01:34 22.9 °C 19.3 °C 1014.6 hPa West 2.9 km/h 3.9 km/h 80% 0.0 mm CLR
01:39 22.9 °C 19.3 °C 1014.6 hPa Calm     80% 0.0 mm CLR
01:44 23.0 °C 19.4 °C 1014.6 hPa Calm     80% 0.0 mm CLR
01:49 23.0 °C 19.4 °C 1014.4 hPa West 2.3 km/h 5.6 km/h 80% 0.0 mm CLR
01:54 23.0 °C 19.4 °C 1014.4 hPa West 2.3 km/h 5.6 km/h 80% 0.0 mm CLR
01:59 23.1 °C 19.3 °C 1014.4 hPa WNW 3.2 km/h 7.4 km/h 79% 0.0 mm CLR
02:04 23.1 °C 19.3 °C 1014.1 hPa West 3.2 km/h 5.6 km/h 79% 0.0 mm CLR
02:09 23.1 °C 19.3 °C 1014.1 hPa WSW 3.9 km/h 7.4 km/h 79% 0.0 mm CLR
02:14 23.1 °C 19.3 °C 1014.1 hPa WSW 3.9 km/h 4.7 km/h 79% 0.0 mm CLR
02:19 23.1 °C 19.3 °C 1013.9 hPa WSW 3.9 km/h 5.6 km/h 79% 0.0 mm CLR
02:24 23.1 °C 19.1 °C 1013.9 hPa WSW 3.9 km/h 4.7 km/h 78% 0.0 mm CLR
02:29 23.1 °C 19.1 °C 1013.9 hPa WSW 3.2 km/h 5.6 km/h 78% 0.0 mm CLR
02:34 23.1 °C 19.1 °C 1014.0 hPa WNW 3.2 km/h 8.4 km/h 78% 0.0 mm CLR
02:39 23.1 °C 19.1 °C 1014.0 hPa WSW 3.9 km/h 7.4 km/h 78% 0.0 mm CLR
02:44 23.1 °C 19.1 °C 1014.0 hPa SW 3.9 km/h 9.3 km/h 78% 0.0 mm CLR
02:49 23.1 °C 19.1 °C 1013.8 hPa SW 5.0 km/h 9.5 km/h 78% 0.0 mm CLR
02:54 23.1 °C 19.1 °C 1013.8 hPa SSW 5.0 km/h 8.7 km/h 78% 0.0 mm CLR
02:59 23.1 °C 19.1 °C 1013.8 hPa SSW 6.9 km/h 13.0 km/h 78% 0.0 mm CLR
03:04 23.0 °C 18.9 °C 1013.8 hPa SSW 6.9 km/h 9.5 km/h 78% 0.0 mm CLR
03:09 22.9 °C 18.8 °C 1013.8 hPa SSE 8.4 km/h 11.1 km/h 78% 0.0 mm CLR
03:14 22.8 °C 18.9 °C 1013.8 hPa SSE 8.4 km/h 16.7 km/h 79% 0.0 mm CLR
03:19 22.6 °C 19.0 °C 1013.7 hPa South 10.3 km/h 13.0 km/h 80% 0.0 mm CLR
03:24 22.5 °C 18.9 °C 1013.7 hPa South 10.3 km/h 13.0 km/h 80% 0.0 mm CLR
03:29 22.5 °C 19.1 °C 1013.7 hPa South 9.5 km/h 13.0 km/h 81% 0.0 mm CLR
03:34 22.4 °C 19.0 °C 1013.8 hPa SSE 9.5 km/h 9.5 km/h 81% 0.0 mm CLR
03:39 22.5 °C 19.1 °C 1013.8 hPa SE 8.4 km/h 7.4 km/h 81% 0.0 mm CLR
03:44 22.6 °C 19.0 °C 1013.8 hPa SSE 8.4 km/h 11.1 km/h 80% 0.0 mm CLR
03:49 22.6 °C 19.0 °C 1013.7 hPa SSE 7.6 km/h 7.6 km/h 80% 0.0 mm CLR
03:54 22.6 °C 19.0 °C 1013.7 hPa SE 7.6 km/h 6.4 km/h 80% 0.0 mm CLR
03:59 22.6 °C 19.0 °C 1013.7 hPa ESE 5.8 km/h 9.3 km/h 80% 0.0 mm CLR
04:04 22.5 °C 18.9 °C 1013.8 hPa ESE 5.8 km/h 9.3 km/h 80% 0.0 mm CLR
04:09 22.4 °C 18.8 °C 1013.8 hPa ESE 6.9 km/h 11.1 km/h 80% 0.0 mm CLR
04:14 22.4 °C 18.8 °C 1013.8 hPa East 6.9 km/h 11.1 km/h 80% 0.0 mm CLR
04:19 22.5 °C 18.9 °C 1013.9 hPa ESE 7.6 km/h 11.1 km/h 80% 0.0 mm CLR
04:24 22.7 °C 19.1 °C 1013.9 hPa SE 7.6 km/h 18.5 km/h 80% 0.0 mm CLR
04:29 22.8 °C 18.9 °C 1013.9 hPa SE 10.3 km/h 13.0 km/h 79% 0.0 mm CLR
04:34 22.8 °C 18.9 °C 1014.0 hPa East 10.3 km/h 16.7 km/h 79% 0.0 mm CLR
04:39 22.8 °C 18.9 °C 1014.0 hPa East 8.4 km/h 9.3 km/h 79% 0.0 mm CLR
04:44 22.8 °C 18.9 °C 1014.0 hPa SE 8.4 km/h 10.0 km/h 79% 0.0 mm CLR
04:49 22.8 °C 18.9 °C 1014.1 hPa East 7.6 km/h 13.0 km/h 79% 0.0 mm CLR
04:54 22.8 °C 18.9 °C 1014.1 hPa ESE 7.6 km/h 7.4 km/h 79% 0.0 mm CLR
04:59 22.8 °C 18.9 °C 1014.1 hPa ENE 5.0 km/h 7.4 km/h 79% 0.0 mm CLR
05:04 22.8 °C 19.2 °C 1014.2 hPa ENE 5.0 km/h 7.4 km/h 80% 0.0 mm CLR
05:09 22.7 °C 19.1 °C 1014.2 hPa ENE 5.0 km/h 7.4 km/h 80% 0.0 mm CLR
05:14 22.7 °C 19.1 °C 1014.2 hPa East 5.0 km/h 7.4 km/h 80% 0.0 mm CLR
05:19 22.7 °C 19.1 °C 1014.3 hPa East 3.2 km/h 5.6 km/h 80% 0.0 mm CLR
05:24 22.7 °C 19.1 °C 1014.3 hPa East 3.2 km/h 5.6 km/h 80% 0.0 mm CLR
05:29 22.7 °C 19.1 °C 1014.3 hPa East 3.2 km/h 7.4 km/h 80% 0.0 mm CLR
05:34 22.7 °C 19.1 °C 1014.4 hPa South 3.2 km/h 5.6 km/h 80% 0.0 mm CLR
05:39 22.7 °C 18.9 °C 1014.4 hPa West 4.7 km/h 9.3 km/h 79% 0.0 mm CLR
05:44 22.7 °C 18.9 °C 1014.4 hPa NW 4.7 km/h 8.7 km/h 79% 0.0 mm CLR
05:49 22.6 °C 19.0 °C 1014.6 hPa NNW 3.9 km/h 7.4 km/h 80% 0.0 mm CLR
05:54 22.5 °C 18.9 °C 1014.6 hPa NNW 3.9 km/h 3.9 km/h 80% 0.0 mm CLR
05:59 22.4 °C 18.8 °C 1014.6 hPa NNW 2.9 km/h   80% 0.0 mm CLR
06:04 22.4 °C 18.8 °C 1014.8 hPa WNW 2.9 km/h 6.9 km/h 80% 0.0 mm CLR
06:09 22.4 °C 18.8 °C 1014.8 hPa WNW 2.9 km/h 6.4 km/h 80% 0.0 mm CLR
06:14 22.4 °C 19.0 °C 1014.8 hPa WNW 2.9 km/h 5.6 km/h 81% 0.0 mm CLR
06:19 22.4 °C 18.8 °C 1014.9 hPa NW 3.9 km/h 5.0 km/h 80% 0.0 mm CLR
06:24 22.4 °C 18.8 °C 1014.9 hPa WNW 3.9 km/h 5.6 km/h 80% 0.0 mm CLR
06:29 22.4 °C 18.8 °C 1014.9 hPa WNW 2.9 km/h   80% 0.0 mm CLR
06:34 22.4 °C 18.8 °C 1015.0 hPa NW 2.9 km/h 4.7 km/h 80% 0.0 mm CLR
06:39 22.4 °C 19.0 °C 1015.0 hPa NW 2.3 km/h 5.6 km/h 81% 0.0 mm CLR
06:44 22.4 °C 19.0 °C 1015.0 hPa NNW 2.3 km/h 5.6 km/h 81% 0.0 mm CLR
06:49 22.3 °C 18.9 °C 1015.1 hPa NNW 3.9 km/h 5.6 km/h 81% 0.0 mm CLR
06:54 22.3 °C 18.9 °C 1015.1 hPa WNW 3.9 km/h 9.3 km/h 81% 0.0 mm CLR
06:59 22.3 °C 18.9 °C 1015.1 hPa WNW 5.0 km/h 7.4 km/h 81% 0.0 mm CLR
07:04 22.4 °C 19.0 °C 1015.2 hPa WNW 5.0 km/h 7.4 km/h 81% 0.0 mm CLR
07:09 22.4 °C 19.0 °C 1015.2 hPa NNW 3.9 km/h 5.8 km/h 81% 0.0 mm CLR
07:14 22.5 °C 19.1 °C 1015.2 hPa NNW 3.9 km/h 7.4 km/h 81% 0.0 mm CLR
07:19 22.5 °C 18.9 °C 1015.3 hPa WNW 3.9 km/h 9.3 km/h 80% 0.0 mm CLR
07:24 22.6 °C 19.0 °C 1015.3 hPa West 3.9 km/h 7.4 km/h 80% 0.0 mm CLR
07:29 22.6 °C 19.0 °C 1015.3 hPa West 5.0 km/h 7.4 km/h 80% 0.0 mm CLR
07:34 22.7 °C 18.9 °C 1015.3 hPa WNW 5.0 km/h 5.8 km/h 79% 0.0 mm CLR
07:39 22.7 °C 18.9 °C 1015.3 hPa West 4.7 km/h 7.4 km/h 79% 0.0 mm CLR
07:44 22.8 °C 18.9 °C 1015.3 hPa WNW 4.7 km/h 7.4 km/h 79% 0.0 mm CLR
07:49 22.9 °C 19.1 °C 1015.4 hPa WSW 3.9 km/h 7.4 km/h 79% 0.0 mm CLR
07:54 23.0 °C 18.9 °C 1015.4 hPa WSW 3.9 km/h 4.7 km/h 78% 0.0 mm CLR
07:59 23.1 °C 19.1 °C 1015.4 hPa West 2.9 km/h 7.4 km/h 78% 0.0 mm CLR
08:04 23.1 °C 19.1 °C 1015.4 hPa NW 2.9 km/h 5.8 km/h 78% 0.0 mm CLR
08:09 23.2 °C 18.9 °C 1015.4 hPa NW 4.7 km/h 7.4 km/h 77% 0.0 mm CLR
08:14 23.2 °C 18.9 °C 1015.4 hPa NW 4.7 km/h 7.4 km/h 77% 0.0 mm CLR
08:19 23.2 °C 18.9 °C 1015.5 hPa NW 3.9 km/h 3.7 km/h 77% 0.0 mm CLR
08:24 23.3 °C 19.1 °C 1015.5 hPa NW 3.9 km/h   77% 0.0 mm CLR
08:29 23.4 °C 19.1 °C 1015.5 hPa NW 2.3 km/h 5.6 km/h 77% 0.0 mm CLR
08:34 23.4 °C 18.9 °C 1015.6 hPa WNW 2.3 km/h 7.4 km/h 76% 0.0 mm CLR
08:39 23.6 °C 19.1 °C 1015.6 hPa WNW 3.2 km/h 3.7 km/h 76% 0.0 mm CLR
08:44 23.6 °C 19.1 °C 1015.6 hPa NW 3.2 km/h 5.6 km/h 76% 0.0 mm CLR
08:49 23.7 °C 19.2 °C 1015.8 hPa Calm     76% 0.0 mm CLR
08:54 23.7 °C 19.2 °C 1015.8 hPa Calm     76% 0.0 mm CLR
08:59 23.8 °C 19.3 °C 1015.8 hPa Calm   5.6 km/h 76% 0.0 mm CLR
09:04 23.8 °C 19.3 °C 1015.9 hPa Calm   5.6 km/h 76% 0.0 mm CLR
09:09 23.7 °C 19.2 °C 1015.9 hPa NE 3.9 km/h 5.6 km/h 76% 0.0 mm CLR
09:14 23.7 °C 19.2 °C 1015.9 hPa NNE 3.9 km/h 5.6 km/h 76% 0.0 mm CLR
09:19 23.7 °C 19.2 °C 1015.9 hPa NNE 4.7 km/h 7.4 km/h 76% 0.0 mm CLR
09:24 23.8 °C 19.3 °C 1015.9 hPa NNE 4.7 km/h 3.7 km/h 76% 0.0 mm CLR
09:29 23.8 °C 19.1 °C 1015.9 hPa NNE 2.9 km/h   75% 0.0 mm CLR
09:34 23.9 °C 19.2 °C 1016.0 hPa NE 2.9 km/h 5.6 km/h 75% 0.0 mm CLR
09:39 24.0 °C 19.3 °C 1016.0 hPa East 3.2 km/h 7.4 km/h 75% 0.0 mm CLR
09:44 24.1 °C 19.4 °C 1016.0 hPa East 3.2 km/h 9.5 km/h 75% 0.0 mm CLR
09:49 24.1 °C 19.4 °C 1016.2 hPa East 5.0 km/h 9.3 km/h 75% 0.0 mm CLR
09:54 24.1 °C 19.4 °C 1016.2 hPa NE 5.0 km/h 7.4 km/h 75% 0.0 mm CLR
09:59 24.2 °C 19.3 °C 1016.2 hPa East 5.0 km/h 7.4 km/h 74% 0.0 mm CLR
10:04 24.3 °C 19.4 °C 1016.2 hPa ESE 5.0 km/h 5.6 km/h 74% 0.0 mm CLR
10:09 24.5 °C 19.6 °C 1016.2 hPa NE 3.9 km/h 6.4 km/h 74% 0.0 mm CLR
10:14 24.8 °C 19.6 °C 1016.2 hPa SSE 3.9 km/h 5.6 km/h 73% 0.0 mm CLR
10:19 24.9 °C 19.5 °C 1016.1 hPa WNW 4.7 km/h 7.4 km/h 72% 0.0 mm CLR
10:24 25.1 °C 19.4 °C 1016.1 hPa SE 4.7 km/h 7.4 km/h 71% 0.0 mm CLR
10:29 25.1 °C 19.4 °C 1016.1 hPa WSW 4.7 km/h 7.4 km/h 71% 0.0 mm CLR
10:34 25.2 °C 19.6 °C 1016.0 hPa NW 4.7 km/h 2.3 km/h 71% 0.0 mm CLR
10:39 25.4 °C 19.6 °C 1016.0 hPa NNW 3.9 km/h 11.1 km/h 70% 0.0 mm CLR
10:44 25.6 °C 19.7 °C 1016.0 hPa WNW 3.9 km/h 3.7 km/h 70% 0.0 mm CLR
10:49 25.8 °C 19.4 °C 1016.0 hPa WSW 4.7 km/h 9.3 km/h 68% 0.0 mm CLR
10:54 25.7 °C 19.3 °C 1016.0 hPa NW 4.7 km/h 5.6 km/h 68% 0.0 mm CLR
10:59 25.8 °C 19.4 °C 1016.0 hPa NW 3.9 km/h 7.6 km/h 68% 0.0 mm CLR
11:04 25.8 °C 19.4 °C 1015.9 hPa West 3.9 km/h 13.0 km/h 68% 0.0 mm CLR
11:09 25.7 °C 19.3 °C 1015.9 hPa West 6.9 km/h 3.7 km/h 68% 0.0 mm CLR
11:14 25.8 °C 19.4 °C 1015.9 hPa NNE 6.9 km/h 7.4 km/h 68% 0.0 mm CLR
11:19 26.0 °C 19.4 °C 1015.9 hPa North 3.9 km/h 5.0 km/h 67% 0.0 mm CLR
11:24 26.3 °C 19.4 °C 1015.9 hPa NNE 3.9 km/h 4.7 km/h 66% 0.0 mm CLR
11:29 26.7 °C 19.6 °C 1015.9 hPa NE 2.9 km/h 5.6 km/h 65% 0.0 mm CLR
11:34 26.9 °C 19.3 °C 1015.8 hPa NNW 2.9 km/h 9.3 km/h 63% 0.0 mm CLR
11:39 26.8 °C 19.4 °C 1015.8 hPa NNW 5.8 km/h 7.4 km/h 64% 0.0 mm CLR
11:44 26.9 °C 19.3 °C 1015.8 hPa SSE 5.8 km/h 3.7 km/h 63% 0.0 mm CLR
11:49 27.2 °C 19.3 °C 1015.9 hPa SW 3.9 km/h 7.4 km/h 62% 0.0 mm CLR
11:54 27.3 °C 19.4 °C 1015.9 hPa West 3.9 km/h 9.3 km/h 62% 0.0 mm CLR
11:59 27.4 °C 18.9 °C 1015.9 hPa SSW 4.7 km/h 9.3 km/h 60% 0.0 mm CLR
12:04 27.4 °C 19.2 °C 1015.8 hPa SE 4.7 km/h 5.6 km/h 61% 0.0 mm CLR
12:09 27.6 °C 19.1 °C 1015.8 hPa WSW 5.0 km/h 9.5 km/h 60% 0.0 mm CLR
12:14 27.7 °C 18.9 °C 1015.8 hPa NW 5.0 km/h 11.1 km/h 59% 0.0 mm CLR
12:19 27.6 °C 18.9 °C 1015.7 hPa NW 6.9 km/h 13.0 km/h 59% 0.0 mm CLR
12:24 27.4 °C 18.9 °C 1015.7 hPa NW 6.9 km/h 8.7 km/h 60% 0.0 mm CLR
12:29 27.4 °C 18.9 °C 1015.7 hPa NW 7.6 km/h 10.3 km/h 60% 0.0 mm CLR
12:34 27.4 °C 18.9 °C 1015.7 hPa WSW 7.6 km/h 4.7 km/h 60% 0.0 mm CLR
12:39 27.6 °C 18.9 °C 1015.7 hPa ENE 5.0 km/h 7.4 km/h 59% 0.0 mm CLR
12:44 27.7 °C 18.9 °C 1015.7 hPa NE 5.0 km/h 9.3 km/h 59% 0.0 mm CLR
12:49 27.9 °C 19.2 °C 1015.6 hPa WSW 5.0 km/h 9.3 km/h 59% 0.0 mm CLR
12:54 28.2 °C 19.2 °C 1015.6 hPa SSW 5.0 km/h 14.8 km/h 58% 0.0 mm CLR
12:59 28.4 °C 19.1 °C 1015.6 hPa SSE 6.9 km/h 14.8 km/h 57% 0.0 mm CLR
13:04 28.5 °C 19.2 °C 1015.4 hPa SE 6.9 km/h 14.8 km/h 57% 0.0 mm CLR
13:09 28.2 °C 19.2 °C 1015.4 hPa SW 10.3 km/h 11.1 km/h 58% 0.0 mm CLR
13:14 28.2 °C 19.2 °C 1015.4 hPa South 10.3 km/h 11.1 km/h 58% 0.0 mm CLR
13:19 28.4 °C 19.1 °C 1015.3 hPa SSW 7.6 km/h 14.8 km/h 57% 0.0 mm CLR
13:24 28.6 °C 19.2 °C 1015.3 hPa SSE 7.6 km/h 14.8 km/h 57% 0.0 mm CLR
13:29 28.7 °C 19.3 °C 1015.3 hPa WNW 8.4 km/h 3.7 km/h 57% 0.0 mm CLR
13:34 29.0 °C 19.1 °C 1015.0 hPa SSW 8.4 km/h 11.1 km/h 55% 0.0 mm CLR
13:39 29.2 °C 19.2 °C 1015.0 hPa SE 4.7 km/h 8.4 km/h 55% 0.0 mm CLR
13:44 29.5 °C 19.2 °C 1015.0 hPa SE 4.7 km/h 9.3 km/h 54% 0.0 mm CLR
13:49 29.8 °C 19.5 °C 1014.9 hPa ESE 4.7 km/h 11.1 km/h 54% 0.0 mm CLR
13:54 29.8 °C 19.2 °C 1014.9 hPa SW 4.7 km/h 6.4 km/h 53% 0.0 mm CLR
13:59 29.9 °C 19.3 °C 1014.9 hPa West 4.7 km/h 11.1 km/h 53% 0.0 mm CLR
14:04 29.8 °C 19.2 °C 1014.7 hPa NW 4.7 km/h 5.6 km/h 53% 0.0 mm CLR
14:09 30.0 °C 19.4 °C 1014.7 hPa West 5.0 km/h 11.1 km/h 53% 0.0 mm CLR
14:14 30.2 °C 19.3 °C 1014.7 hPa West 5.0 km/h 13.0 km/h 52% 0.0 mm CLR
14:19 30.2 °C 19.3 °C 1014.5 hPa ENE 7.6 km/h 11.9 km/h 52% 0.0 mm CLR
14:24 30.2 °C 19.3 °C 1014.5 hPa East 7.6 km/h 13.0 km/h 52% 0.0 mm CLR
14:29 30.2 °C 19.3 °C 1014.5 hPa ENE 7.6 km/h 13.7 km/h 52% 0.0 mm CLR
14:34 30.2 °C 19.3 °C 1014.4 hPa NE 7.6 km/h 16.7 km/h 52% 0.0 mm CLR
14:39 30.3 °C 19.1 °C 1014.4 hPa NNW 9.5 km/h 14.0 km/h 51% 0.0 mm CLR
14:44 30.6 °C 19.0 °C 1014.4 hPa NE 9.5 km/h 9.3 km/h 50% 0.0 mm CLR
14:49 30.9 °C 18.9 °C 1014.3 hPa NNW 8.4 km/h 16.7 km/h 49% 0.0 mm CLR
14:54 31.1 °C 19.1 °C 1014.3 hPa NNE 8.4 km/h 18.0 km/h 49% 0.0 mm CLR
14:59 31.1 °C 19.1 °C 1014.3 hPa ENE 9.5 km/h 13.0 km/h 49% 0.0 mm CLR
15:04 31.2 °C 19.2 °C 1014.0 hPa ENE 9.5 km/h 13.0 km/h 49% 0.0 mm CLR
15:09 31.3 °C 19.3 °C 1014.0 hPa ENE 7.6 km/h 14.8 km/h 49% 0.0 mm CLR
15:14 31.6 °C 19.3 °C 1014.0 hPa North 7.6 km/h 16.7 km/h 48% 0.0 mm CLR
15:19 31.6 °C 20.2 °C 1013.8 hPa East 10.3 km/h 18.5 km/h 51% 0.0 mm CLR
15:24 31.6 °C 20.2 °C 1013.8 hPa East 10.3 km/h 13.0 km/h 51% 0.0 mm CLR
15:29 31.6 °C 20.2 °C 1013.8 hPa SE 11.9 km/h 13.0 km/h 51% 0.0 mm CLR
15:34 31.9 °C 20.8 °C 1013.8 hPa East 11.9 km/h 24.1 km/h 52% 0.0 mm CLR
15:39 31.8 °C 21.1 °C 1013.8 hPa North 11.9 km/h 16.7 km/h 53% 0.0 mm CLR
15:44 31.5 °C 21.1 °C 1013.8 hPa NE 11.9 km/h 18.5 km/h 54% 0.0 mm CLR
15:49 31.1 °C 21.0 °C 1013.8 hPa ESE 16.1 km/h 25.9 km/h 55% 0.0 mm CLR
15:54 31.1 °C 20.7 °C 1013.8 hPa East 16.1 km/h 20.4 km/h 54% 0.0 mm CLR
15:59 30.9 °C 20.5 °C 1013.8 hPa East 15.6 km/h 18.5 km/h 54% 0.0 mm CLR
16:04 30.9 °C 20.2 °C 1013.8 hPa NE 15.6 km/h 29.6 km/h 53% 0.0 mm CLR
16:09 30.9 °C 20.2 °C 1013.8 hPa ENE 15.6 km/h 23.3 km/h 53% 0.0 mm CLR
16:14 31.0 °C 20.3 °C 1013.8 hPa SSW 15.6 km/h 16.7 km/h 53% 0.0 mm CLR
16:19 31.3 °C 19.9 °C 1013.7 hPa East 11.1 km/h 14.8 km/h 51% 0.0 mm CLR
16:24 31.4 °C 20.1 °C 1013.7 hPa East 11.1 km/h 24.1 km/h 51% 0.0 mm CLR
16:29 31.6 °C 19.9 °C 1013.7 hPa NE 10.0 km/h 25.1 km/h 50% 0.0 mm CLR
16:34 31.5 °C 19.8 °C 1013.5 hPa East 10.0 km/h 14.8 km/h 50% 0.0 mm CLR
16:39 31.7 °C 19.7 °C 1013.5 hPa NE 13.7 km/h 11.1 km/h 49% 0.0 mm CLR
16:44 31.9 °C 19.5 °C 1013.5 hPa NNE 13.7 km/h 24.1 km/h 48% 0.0 mm CLR
16:49 31.8 °C 19.4 °C 1013.3 hPa NNE 13.7 km/h 18.0 km/h 48% 0.0 mm CLR
16:54 32.0 °C 19.3 °C 1013.3 hPa ENE 13.7 km/h 18.5 km/h 47% 0.0 mm CLR
16:59 32.1 °C 19.0 °C 1013.3 hPa NE 14.0 km/h 25.9 km/h 46% 0.0 mm CLR
17:04 32.1 °C 18.7 °C 1013.1 hPa ENE 14.0 km/h 20.4 km/h 45% 0.0 mm CLR
17:09 32.1 °C 18.7 °C 1013.1 hPa ENE 14.0 km/h 20.4 km/h 45% 0.0 mm CLR
17:14 32.1 °C 18.3 °C 1013.1 hPa NE 14.0 km/h 24.1 km/h 44% 0.0 mm CLR
17:19 32.1 °C 18.3 °C 1013.0 hPa NE 14.8 km/h 25.9 km/h 44% 0.0 mm CLR
17:24 32.1 °C 18.3 °C 1013.0 hPa NE 14.8 km/h 20.4 km/h 44% 0.0 mm CLR
17:29 32.3 °C 18.1 °C 1013.0 hPa ENE 13.7 km/h 21.7 km/h 43% 0.0 mm CLR
17:34 32.3 °C 17.8 °C 1012.9 hPa NNE 13.7 km/h 18.5 km/h 42% 0.0 mm CLR
17:39 32.4 °C 17.8 °C 1012.9 hPa NNE 14.0 km/h 22.2 km/h 42% 0.0 mm CLR
17:44 32.3 °C 17.8 °C 1012.9 hPa NNE 14.0 km/h 14.8 km/h 42% 0.0 mm CLR
17:49 32.4 °C 18.2 °C 1012.8 hPa NE 14.0 km/h 27.0 km/h 43% 0.0 mm CLR
17:54 32.2 °C 19.8 °C 1012.8 hPa NE 14.0 km/h 27.8 km/h 48% 0.0 mm CLR
17:59 31.7 °C 20.6 °C 1012.8 hPa NE 19.8 km/h 28.2 km/h 52% 0.0 mm CLR
18:04 31.3 °C 20.6 °C 1012.8 hPa NE 19.8 km/h 29.6 km/h 53% 0.0 mm CLR
18:09 31.0 °C 20.9 °C 1012.8 hPa NE 20.9 km/h 25.9 km/h 55% 0.0 mm CLR
18:14 30.8 °C 20.7 °C 1012.8 hPa ENE 20.9 km/h 33.5 km/h 55% 0.0 mm CLR
18:19 30.5 °C 20.7 °C 1012.9 hPa NE 19.8 km/h 25.9 km/h 56% 0.0 mm CLR
18:24 30.1 °C 20.7 °C 1012.9 hPa North 19.8 km/h 27.8 km/h 57% 0.0 mm CLR
18:29 30.1 °C 19.8 °C 1012.9 hPa East 19.0 km/h 27.8 km/h 54% 0.0 mm CLR
18:34 30.0 °C 19.1 °C 1013.0 hPa East 19.0 km/h 27.8 km/h 52% 0.0 mm CLR
18:39 29.9 °C 19.0 °C 1013.0 hPa ENE 17.2 km/h 31.5 km/h 52% 0.0 mm CLR
18:44 29.9 °C 18.7 °C 1013.0 hPa ESE 17.2 km/h 23.3 km/h 51% 0.0 mm CLR
18:49 30.2 °C 18.9 °C 1012.9 hPa East 15.6 km/h 25.9 km/h 51% 0.0 mm CLR
18:54 30.3 °C 18.7 °C 1012.9 hPa East 15.6 km/h 22.2 km/h 50% 0.0 mm CLR
18:59 30.3 °C 18.7 °C 1012.9 hPa ENE 13.7 km/h 25.9 km/h 50% 0.0 mm CLR
19:04 30.3 °C 18.7 °C 1013.1 hPa NE 13.7 km/h 14.8 km/h 50% 0.0 mm CLR
19:09 30.4 °C 18.5 °C 1013.1 hPa ESE 13.0 km/h 24.1 km/h 49% 0.0 mm CLR
19:14 30.5 °C 18.2 °C 1013.1 hPa ESE 13.0 km/h 22.2 km/h 48% 0.0 mm CLR
19:19 30.4 °C 18.5 °C 1013.1 hPa NE 12.2 km/h 18.5 km/h 49% 0.0 mm CLR
19:24 30.4 °C 18.5 °C 1013.1 hPa ENE 12.2 km/h 13.7 km/h 49% 0.0 mm CLR
19:29 30.4 °C 18.5 °C 1013.1 hPa ESE 11.1 km/h 18.5 km/h 49% 0.0 mm CLR
19:34 30.5 °C 18.6 °C 1013.3 hPa East 11.1 km/h 16.7 km/h 49% 0.0 mm CLR
19:39 30.3 °C 18.7 °C 1013.3 hPa East 10.3 km/h 20.4 km/h 50% 0.0 mm CLR
19:44 30.2 °C 18.9 °C 1013.3 hPa East 10.3 km/h 9.5 km/h 51% 0.0 mm CLR
19:49 30.2 °C 18.6 °C 1013.3 hPa East 10.3 km/h 13.0 km/h 50% 0.0 mm CLR
19:54 30.1 °C 18.8 °C 1013.3 hPa NE 10.3 km/h 13.0 km/h 51% 0.0 mm CLR
19:59 30.0 °C 18.8 °C 1013.3 hPa ENE 11.1 km/h 17.2 km/h 51% 0.0 mm CLR
20:04 30.0 °C 18.8 °C 1013.3 hPa East 11.1 km/h 14.0 km/h 51% 0.0 mm CLR
20:09 29.9 °C 18.7 °C 1013.3 hPa ENE 10.0 km/h 18.5 km/h 51% 0.0 mm CLR
20:14 29.9 °C 18.7 °C 1013.3 hPa ENE 10.0 km/h 14.8 km/h 51% 0.0 mm CLR
20:19 29.9 °C 19.0 °C 1013.4 hPa ESE 10.0 km/h 15.6 km/h 52% 0.0 mm CLR
20:24 29.8 °C 18.9 °C 1013.4 hPa NE 10.0 km/h 16.4 km/h 52% 0.0 mm CLR
20:29 29.7 °C 19.1 °C 1013.4 hPa NE 10.3 km/h 12.2 km/h 53% 0.0 mm CLR
20:34 29.6 °C 19.0 °C 1013.6 hPa NE 10.3 km/h 11.1 km/h 53% 0.0 mm CLR
20:39 29.5 °C 19.2 °C 1013.6 hPa NE 10.3 km/h 11.1 km/h 54% 0.0 mm CLR
20:44 29.4 °C 19.1 °C 1013.6 hPa NNE 9.5 km/h 11.1 km/h 54% 0.0 mm CLR
20:49 29.4 °C 19.1 °C 1013.7 hPa NE 8.4 km/h 13.0 km/h 54% 0.0 mm CLR
20:54 29.4 °C 19.1 °C 1013.7 hPa East 8.4 km/h 9.3 km/h 54% 0.0 mm CLR
20:59 29.3 °C 19.3 °C 1013.7 hPa NNE 6.4 km/h 9.3 km/h 55% 0.0 mm CLR
21:04 29.2 °C 19.2 °C 1013.9 hPa ESE 6.4 km/h 11.1 km/h 55% 0.0 mm CLR
21:09 29.0 °C 19.3 °C 1013.9 hPa ESE 6.9 km/h 14.8 km/h 56% 0.0 mm CLR
21:14 28.8 °C 19.4 °C 1013.9 hPa ESE 6.9 km/h 11.1 km/h 57% 0.0 mm CLR
21:19 28.6 °C 19.5 °C 1014.0 hPa East 8.4 km/h 9.3 km/h 58% 0.0 mm CLR
21:24 28.4 °C 19.6 °C 1014.0 hPa ENE 8.4 km/h 9.3 km/h 59% 0.0 mm CLR
21:29 28.3 °C 19.5 °C 1014.0 hPa ESE 5.8 km/h 12.2 km/h 59% 0.0 mm CLR
21:34 28.1 °C 19.9 °C 1014.2 hPa ESE 5.8 km/h 17.2 km/h 61% 0.0 mm CLR
21:39 27.7 °C 20.0 °C 1014.2 hPa SE 11.1 km/h 19.0 km/h 63% 0.0 mm CLR
21:44 27.5 °C 20.1 °C 1014.2 hPa SE 11.1 km/h 20.4 km/h 64% 0.0 mm CLR
21:49 27.4 °C 20.2 °C 1014.5 hPa SE 11.1 km/h 14.8 km/h 65% 0.0 mm CLR
21:54 27.3 °C 19.4 °C 1014.5 hPa NNE 11.1 km/h 9.3 km/h 62% 0.0 mm CLR
21:59 27.2 °C 19.3 °C 1014.5 hPa East 8.7 km/h 14.8 km/h 62% 0.0 mm CLR
22:04 27.1 °C 19.4 °C 1014.7 hPa ENE 8.7 km/h 9.3 km/h 63% 0.0 mm CLR
22:09 26.9 °C 19.3 °C 1014.7 hPa East 8.4 km/h 14.8 km/h 63% 0.0 mm CLR
22:14 26.9 °C 19.5 °C 1014.7 hPa East 8.4 km/h 16.7 km/h 64% 0.0 mm CLR
22:19 26.8 °C 19.4 °C 1014.8 hPa East 8.4 km/h 9.3 km/h 64% 0.0 mm CLR
22:24 26.8 °C 19.7 °C 1014.8 hPa East 8.4 km/h 13.0 km/h 65% 0.0 mm CLR
22:29 26.6 °C 19.7 °C 1014.8 hPa NE 8.4 km/h 14.8 km/h 66% 0.0 mm CLR
22:34 26.5 °C 19.9 °C 1015.0 hPa East 8.4 km/h 11.9 km/h 67% 0.0 mm CLR
22:39 26.4 °C 19.8 °C 1015.0 hPa East 7.6 km/h 8.4 km/h 67% 0.0 mm CLR
22:44 26.3 °C 19.9 °C 1015.0 hPa East 7.6 km/h 9.3 km/h 68% 0.0 mm CLR
22:49 26.3 °C 19.9 °C 1015.1 hPa NE 4.7 km/h 6.4 km/h 68% 0.0 mm CLR
22:54 26.3 °C 19.9 °C 1015.1 hPa East 4.7 km/h 7.4 km/h 68% 0.0 mm CLR
22:59 26.2 °C 19.8 °C 1015.1 hPa East 3.9 km/h 9.3 km/h 68% 0.0 mm CLR
23:04 26.1 °C 19.7 °C 1015.4 hPa NE 3.9 km/h 13.0 km/h 68% 0.0 mm CLR
23:09 26.0 °C 19.6 °C 1015.4 hPa NE 6.9 km/h 11.1 km/h 68% 0.0 mm CLR
23:14 25.9 °C 19.8 °C 1015.4 hPa NE 6.9 km/h 14.8 km/h 69% 0.0 mm CLR
23:19 25.8 °C 19.9 °C 1015.3 hPa NE 9.5 km/h 11.1 km/h 70% 0.0 mm CLR
23:24 25.8 °C 19.9 °C 1015.3 hPa NE 9.5 km/h 7.4 km/h 70% 0.0 mm CLR
23:29 25.7 °C 19.8 °C 1015.3 hPa NE 8.4 km/h 8.4 km/h 70% 0.0 mm CLR
23:34 25.6 °C 19.9 °C 1015.4 hPa NNE 8.4 km/h 7.6 km/h 71% 0.0 mm CLR
23:39 25.5 °C 20.1 °C 1015.4 hPa NE 6.4 km/h 7.4 km/h 72% 0.0 mm CLR
23:44 25.4 °C 20.0 °C 1015.4 hPa NNW 6.4 km/h 5.6 km/h 72% 0.0 mm CLR
23:49 25.3 °C 19.9 °C 1015.4 hPa NNW 3.2 km/h 3.7 km/h 72% 0.0 mm CLR
23:54 25.3 °C 19.9 °C 1015.4 hPa NW 3.2 km/h 5.6 km/h 72% 0.0 mm CLR
23:59 25.3 °C 20.1 °C 1015.4 hPa NNW 2.3 km/h   73% 0.0 mm CLR
Murcia-Puente Tocinos, España
Compliments of Weather Underground - 2.75 mb

La estación de MeteoMurcia.com, publica sus datos en los siguientes proyectos:

Weather Underground PWS IMURCIAP2 Meteoclimatic www.awekas.at

W3Counter
Web Analytics